User: anonymous
Location: Laverne
(36.7100°N, 99.8930°W)
Time: 22:11:02
(UTC-05:00)
Language:

Iridium 32 - Orbit

View from above orbital plane
View from above orbital plane
View from above satellite
View from above satellite

Ground track
Ground track

The orbit data is extracted from the following two-line orbital elements,

1 24945U 97051B   14109.34225099  .00000859  00000-0  29960-3 0  7994
2 24945 086.3988 049.8306 0002155 101.1276 259.0162 14.34222959868894
Epoch (UTC): 19 April 2014 08:12:50
Eccentricity: 0.0002155
inclination: 86.3988°
perigee height: 776 km
apogee height: 779 km
right ascension of ascending node: 49.8306°
argument of perigee: 101.1276°
revolutions per day: 14.34222959
mean anomaly at epoch: 259.0162°
orbit number at epoch: 86889

The dashed part of the orbit path shows where the satellite is in the earth's shadow,  

DLR